QPF
0.00 0.00 0.00 0.00 0.00 0.00 0.00 0.00 0.00 0.00 0.00 0.00 0.00 0.00 0.00 0.00 0.00 0.00 0.00 0.00 0.00 0.00 0.00 0.00 0.00 0.00 0.00 0.00 0.00 0.00 0.00 0.00 0.00 0.00 0.00 0.01 0.01 0.00 0.00 0.00 0.00 0.00 0.00 0.00 0.00
0.00 0.00 0.00 0.00 0.00 0.00 0.00 0.00 0.00 0.00 0.00 0.00 0.00 0.00 0.00 0.00 0.00 0.00 0.00 0.00 0.00 0.00 0.00 0.00 0.00 0.00 0.00 0.00 0.00 0.00 0.00 0.00 0.00 0.00 0.01 0.02 0.00 0.00 0.00 0.00 0.00 0.00 0.00 0.00 0.00
0.00 0.00 0.00 0.00 0.00 0.00 0.00 0.00 0.00 0.00 0.00 0.00 0.00 0.00 0.00 0.00 0.00 0.00 0.00 0.00 0.00 0.00 0.00 0.00 0.00 0.00 0.00 0.00 0.00 0.00 0.00 0.00 0.00 0.00 0.00 0.01 0.00 0.00 0.00 0.00 0.00 0.00 0.00 0.00 0.00
0.00 0.00 0.00 0.00 0.00 0.00 0.00 0.00 0.00 0.00 0.00 0.00 0.00 0.00 0.00 0.00 0.00 0.00 0.00 0.00 0.00 0.00 0.00 0.00 0.00 0.00 0.00 0.00 0.00 0.00 0.00 0.00 0.00 0.00 0.00 0.00 0.00 0.00 0.00 0.00 0.00 0.00 0.00 0.00 0.00
0.00 0.00 0.00 0.00 0.00 0.00 0.00 0.00 0.00 0.00 0.00 0.00 0.00 0.00 0.00 0.00 0.00 0.00 0.00 0.00 0.00 0.00 0.00 0.00 0.00 0.00 0.00 0.00 0.00 0.00 0.00 0.00 0.00 0.00 0.00 0.00 0.00 0.00 0.00 0.00 0.00 0.00 0.00 0.00 0.00
0.00 0.00 0.00 0.00 0.00 0.00 0.00 0.00 0.00 0.00 0.00 0.00 0.00 0.00 0.00 0.00 0.00 0.00 0.00 0.00 0.00 0.00 0.00 0.00 0.00 0.00 0.00 0.00 0.00 0.00 0.00 0.00 0.00 0.00 0.00 0.00 0.00 0.00 0.00 0.00 0.00 0.00 0.00 0.00 0.00
0.00 0.00 0.00 0.00 0.00 0.00 0.00 0.00 0.00 0.00 0.00 0.00 0.00 0.00 0.00 0.00 0.00 0.00 0.00 0.00 0.00 0.00 0.00 0.00 0.00 0.00 0.00 0.00 0.00 0.00 0.00 0.00 0.00 0.00 0.00 0.00 0.00 0.00 0.00 0.00 0.00 0.00 0.00 0.00 0.00
0.00 0.00 0.00 0.00 0.00 0.00 0.00 0.00 0.00 0.00 0.00 0.00 0.00 0.00 0.00 0.00 0.00 0.00 0.00 0.00 0.00 0.00 0.00 0.00 0.00 0.00 0.00 0.00 0.00 0.00 0.00 0.00 0.00 0.00 0.00 0.00 0.00 0.00 0.00 0.00 0.00 0.00 0.00 0.00 0.00
0.00 0.00 0.00 0.00 0.00 0.00 0.00 0.00 0.00 0.00 0.00 0.00 0.00 0.00 0.00 0.00 0.00 0.00 0.00 0.00 0.00 0.00 0.00 0.00 0.00 0.00 0.00 0.00 0.00 0.00 0.00 0.00 0.00 0.00 0.00 0.00 0.00 0.00 0.00 0.00 0.00 0.00 0.00 0.00 0.00
0.00 0.00 0.00 0.00 0.00 0.00 0.00 0.00 0.00 0.00 0.00 0.00 0.00 0.00 0.00 0.00 0.00 0.00 0.00 0.00 0.00 0.00 0.00 0.00 0.00 0.00 0.00 0.00 0.00 0.00 0.00 0.00 0.00 0.00 0.00 0.00 0.00 0.00 0.00 0.00 0.00 0.00 0.00 0.00 0.00
0.00 0.00 0.00 0.00 0.00 0.00 0.00 0.00 0.00 0.00 0.00 0.00 0.00 0.00 0.00 0.00 0.00 0.00 0.00 0.00 0.00 0.00 0.00 0.00 0.00 0.00 0.00 0.00 0.00 0.00 0.00 0.00 0.00 0.00 0.00 0.00 0.00 0.00 0.00 0.00 0.00 0.00 0.00 0.00 0.00
0.00 0.00 0.00 0.00 0.00 0.00 0.00 0.00 0.00 0.00 0.00 0.00 0.00 0.00 0.00 0.00 0.00 0.00 0.00 0.00 0.00 0.00 0.00 0.00 0.00 0.00 0.00 0.00 0.00 0.00 0.00 0.00 0.00 0.00 0.00 0.00 0.00 0.00 0.00 0.00 0.00 0.00 0.00 0.00 0.00
0.00 0.00 0.00 0.00 0.00 0.00 0.00 0.00 0.00 0.00 0.00 0.00 0.00 0.00 0.00 0.00 0.00 0.00 0.00 0.00 0.00 0.00 0.00 0.00 0.00 0.00 0.00 0.00 0.00 0.00 0.00 0.00 0.00 0.00 0.00 0.00 0.00 0.00 0.00 0.00 0.00 0.00 0.00 0.00 0.00
0.00 0.00 0.00 0.00 0.00 0.00 0.00 0.00 0.00 0.00 0.00 0.00 0.00 0.00 0.00 0.00 0.00 0.00 0.00 0.00 0.00 0.00 0.00 0.00 0.00 0.00 0.00 0.00 0.00 0.00 0.00 0.00 0.00 0.00 0.00 0.00 0.00 0.00 0.00 0.00 0.00 0.00 0.00 0.00 0.00
0.00 0.00 0.00 0.00 0.00 0.00 0.00 0.00 0.00 0.00 0.00 0.00 0.00 0.00 0.00 0.00 0.00 0.00 0.00 0.00 0.00 0.00 0.00 0.00 0.00 0.00 0.00 0.00 0.00 0.00 0.00 0.00 0.00 0.00 0.00 0.00 0.00 0.00 0.00 0.00 0.00 0.00 0.00 0.00 0.00
0.00 0.00 0.00 0.00 0.00 0.00 0.00 0.00 0.00 0.00 0.00 0.00 0.00 0.00 0.00 0.00 0.00 0.00 0.00 0.00 0.00 0.00 0.00 0.00 0.00 0.00 0.00 0.00 0.00 0.00 0.00 0.00 0.00 0.00 0.00 0.00 0.00 0.00 0.00 0.00 0.00 0.00 0.00 0.00 0.00
0.00 0.00 0.00 0.00 0.00 0.00 0.00 0.00 0.00 0.00 0.00 0.00 0.00 0.00 0.00 0.00 0.00 0.00 0.00 0.00 0.00 0.00 0.00 0.00 0.00 0.00 0.00 0.00 0.00 0.00 0.00 0.00 0.00 0.00 0.00 0.00 0.00 0.00 0.00 0.00 0.00 0.00 0.00 0.00 0.00
0.00 0.00 0.00 0.00 0.00 0.00 0.00 0.00 0.00 0.00 0.00 0.00 0.00 0.00 0.00 0.00 0.00 0.00 0.00 0.00 0.00 0.00 0.00 0.00 0.00 0.00 0.00 0.00 0.00 0.00 0.00 0.00 0.00 0.00 0.00 0.00 0.00 0.00 0.00 0.00 0.00 0.00 0.00 0.00 0.00
0.00 0.00 0.00 0.00 0.00 0.00 0.00 0.00 0.00 0.00 0.00 0.00 0.00 0.00 0.00 0.00 0.00 0.00 0.00 0.00 0.00 0.00 0.00 0.00 0.00 0.00 0.00 0.00 0.00 0.00 0.00 0.00 0.00 0.00 0.00 0.00 0.00 0.00 0.00 0.00 0.00 0.00 0.00 0.00 0.00
0.00 0.00 0.00 0.00 0.00 0.00 0.00 0.00 0.00 0.00 0.00 0.00 0.00 0.00 0.00 0.00 0.00 0.00 0.00 0.00 0.00 0.00 0.00 0.00 0.00 0.00 0.00 0.00 0.00 0.00 0.00 0.00 0.00 0.00 0.00 0.00 0.00 0.00 0.00 0.00 0.00 0.00 0.00 0.00 0.00
0.00 0.00 0.00 0.00 0.00 0.00 0.00 0.00 0.00 0.00 0.00 0.00 0.00 0.00 0.00 0.00 0.00 0.00 0.00 0.00 0.00 0.00 0.00 0.00 0.00 0.00 0.00 0.00 0.00 0.00 0.00 0.00 0.00 0.00 0.00 0.00 0.00 0.00 0.00 0.00 0.00 0.00 0.00 0.00 0.00
0.00 0.00 0.00 0.00 0.00 0.00 0.00 0.00 0.00 0.00 0.00 0.00 0.00 0.00 0.00 0.00 0.00 0.00 0.00 0.00 0.00 0.00 0.00 0.00 0.00 0.00 0.00 0.00 0.00 0.00 0.00 0.00 0.00 0.00 0.00 0.00 0.00 0.00 0.00 0.00 0.01 0.00 0.00 0.00 0.00
0.00 0.00 0.00 0.00 0.00 0.00 0.00 0.00 0.00 0.00 0.00 0.00 0.00 0.00 0.00 0.00 0.00 0.00 0.00 0.00 0.00 0.00 0.00 0.00 0.00 0.00 0.00 0.00 0.00 0.00 0.00 0.00 0.00 0.00 0.00 0.00 0.00 0.00 0.01 0.01 0.01 0.00 0.00 0.00 0.01
0.00 0.00 0.00 0.00 0.00 0.00 0.00 0.00 0.00 0.00 0.00 0.00 0.00 0.00 0.00 0.00 0.00 0.00 0.00 0.00 0.00 0.00 0.00 0.00 0.00 0.00 0.00 0.00 0.00 0.00 0.00 0.00 0.00 0.00 0.00 0.00 0.00 0.00 0.00 0.01 0.01 0.01 0.01 0.01 0.01
0.00 0.00 0.00 0.00 0.00 0.00 0.00 0.00 0.00 0.00 0.00 0.00 0.00 0.00 0.00 0.00 0.00 0.00 0.00 0.00 0.00 0.00 0.00 0.00 0.00 0.00 0.00 0.00 0.00 0.00 0.00 0.00 0.00 0.00 0.00 0.00 0.00 0.00 0.00 0.00 0.00 0.00 0.00 0.01 0.00
0.00 0.00 0.00 0.00 0.00 0.00 0.00 0.00 0.00 0.00 0.00 0.00 0.00 0.00 0.00 0.00 0.00 0.00 0.00 0.00 0.00 0.00 0.00 0.00 0.00 0.00 0.00 0.00 0.00 0.00 0.00 0.00 0.00 0.00 0.00 0.00 0.00 0.00 0.00 0.00 0.00 0.00 0.00 0.00 0.00
0.00 0.00 0.00 0.00 0.00 0.00 0.00 0.00 0.00 0.00 0.00 0.00 0.00 0.00 0.00 0.00 0.00 0.00 0.00 0.00 0.00 0.00 0.00 0.00 0.00 0.00 0.00 0.00 0.00 0.00 0.00 0.00 0.00 0.00 0.00 0.00 0.00 0.00 0.00 0.00 0.00 0.00 0.00 0.00 0.01
MSLP
1020.00 1019.47 1019.06 1018.60 1018.19 1017.77 1017.32 1016.77 1016.32 1015.95 1015.61 1015.32 1015.08 1014.96 1014.83 1014.58 1014.09 1014.12 1013.19 1010.69 1010.33 1010.19 1010.62 1010.42 1010.50 1010.44 1010.73 1010.77 1010.62 1010.81 1011.88 1012.35 1011.77 1011.08 1009.90 1010.30 1010.41 1010.79 1010.75 1010.65 1010.32 1010.16 1010.15 1010.91 1011.70
1020.15 1019.64 1019.08 1018.60 1018.15 1017.71 1017.26 1016.76 1016.23 1015.81 1015.48 1015.19 1014.96 1014.81 1014.70 1014.59 1014.24 1012.83 1009.71 1009.60 1009.78 1009.94 1010.56 1010.51 1010.59 1010.68 1011.00 1010.60 1010.41 1010.73 1011.39 1011.01 1010.20 1009.55 1010.03 1010.82 1010.60 1010.51 1010.60 1010.50 1010.48 1010.21 1010.28 1010.86 1011.53
1020.18 1019.61 1019.10 1018.57 1018.08 1017.64 1017.21 1016.71 1016.17 1015.72 1015.38 1015.10 1014.83 1014.62 1014.51 1014.53 1013.80 1010.30 1008.41 1008.86 1009.45 1009.79 1009.95 1010.19 1010.36 1010.77 1010.85 1010.55 1010.23 1010.37 1010.51 1009.71 1008.76 1009.29 1009.12 1009.50 1009.22 1010.16 1010.18 1010.47 1009.52 1009.95 1010.38 1010.99 1011.81
1020.27 1019.68 1019.11 1018.55 1017.96 1017.41 1017.00 1016.51 1016.00 1015.49 1015.13 1014.96 1014.71 1014.47 1014.33 1014.30 1012.40 1008.90 1008.23 1008.57 1009.23 1009.64 1009.90 1009.90 1010.38 1010.62 1010.52 1010.30 1009.96 1010.12 1009.22 1009.05 1008.15 1007.74 1008.37 1008.65 1009.67 1009.81 1009.17 1009.30 1009.35 1009.44 1009.86 1010.78 1011.90
1020.32 1019.75 1019.08 1018.46 1017.91 1017.26 1016.66 1016.18 1015.69 1015.21 1014.86 1014.67 1014.51 1014.31 1014.29 1013.53 1011.00 1008.49 1008.71 1008.92 1009.38 1009.64 1009.79 1009.99 1010.16 1010.34 1010.28 1009.73 1009.47 1009.36 1008.52 1007.91 1007.24 1007.10 1006.90 1006.97 1008.30 1008.80 1009.48 1009.43 1009.50 1009.63 1010.18 1010.94 1011.93
1020.27 1019.69 1019.01 1018.35 1017.76 1017.05 1016.33 1015.75 1015.34 1014.89 1014.50 1014.28 1014.22 1014.27 1013.90 1012.28 1008.53 1008.34 1008.69 1009.23 1009.15 1009.46 1009.46 1009.79 1009.72 1009.61 1009.90 1009.49 1009.34 1008.45 1008.03 1007.38 1006.74 1006.42 1006.47 1007.04 1008.04 1008.32 1009.69 1009.48 1009.52 1009.84 1010.28 1011.13 1011.68
1020.21 1019.53 1018.82 1018.17 1017.52 1016.76 1015.93 1015.21 1014.82 1014.44 1014.09 1013.90 1013.98 1014.00 1013.23 1010.16 1008.45 1008.45 1008.79 1008.85 1008.69 1008.85 1009.22 1009.16 1009.12 1009.43 1009.27 1009.20 1008.86 1008.40 1008.13 1007.18 1006.66 1006.50 1006.64 1007.24 1008.76 1008.92 1009.09 1009.25 1009.52 1009.92 1010.34 1011.04 1011.25
1020.20 1019.41 1018.65 1017.89 1017.17 1016.46 1015.57 1014.73 1014.21 1013.85 1013.67 1013.60 1013.83 1013.67 1011.95 1008.60 1008.53 1008.96 1008.96 1008.75 1008.44 1008.44 1008.67 1008.44 1008.43 1008.61 1008.99 1009.17 1008.99 1009.02 1008.70 1008.35 1007.27 1006.88 1006.65 1006.91 1008.67 1009.22 1009.06 1009.15 1009.70 1009.97 1010.37 1011.10 1011.47
1020.21 1019.39 1018.52 1017.72 1016.87 1016.02 1015.15 1014.21 1013.59 1013.39 1013.41 1013.54 1013.77 1013.13 1010.74 1008.26 1008.37 1007.83 1008.25 1008.40 1008.11 1008.27 1008.23 1007.98 1008.18 1008.98 1009.26 1010.01 1010.41 1009.96 1009.49 1008.77 1007.89 1007.03 1007.10 1007.32 1008.26 1008.64 1008.95 1009.19 1009.64 1010.04 1010.50 1011.00 1011.45
1020.17 1019.35 1018.43 1017.49 1016.60 1015.83 1014.62 1013.46 1013.11 1013.09 1013.43 1013.32 1012.82 1012.67 1009.64 1007.66 1006.89 1006.99 1007.51 1007.88 1008.09 1008.20 1008.43 1008.46 1009.20 1009.82 1010.47 1010.83 1011.17 1010.63 1010.20 1009.46 1008.79 1007.91 1008.05 1008.04 1007.85 1008.49 1008.87 1009.09 1009.25 1009.64 1010.05 1010.52 1010.76
1020.10 1019.31 1018.26 1017.25 1016.22 1015.56 1014.49 1013.28 1013.38 1013.13 1012.58 1011.71 1011.04 1010.05 1008.42 1007.36 1006.49 1006.75 1007.15 1007.74 1007.98 1008.43 1009.04 1009.12 1010.04 1010.49 1010.30 1010.46 1010.24 1010.30 1010.16 1009.72 1008.68 1007.75 1008.19 1007.81 1007.95 1008.12 1008.59 1008.99 1009.13 1009.31 1009.56 1009.84 1009.84
1020.18 1019.27 1018.17 1016.97 1015.71 1015.07 1014.81 1013.90 1012.49 1011.86 1011.08 1010.11 1009.54 1009.03 1007.77 1007.85 1007.72 1006.63 1006.63 1007.74 1008.18 1008.89 1009.28 1009.90 1009.82 1009.62 1009.74 1009.80 1010.03 1009.92 1009.86 1009.39 1008.51 1007.79 1007.86 1007.73 1008.12 1007.92 1008.28 1008.22 1008.50 1008.67 1008.91 1008.90 1009.64
1020.29 1019.36 1018.32 1016.80 1015.09 1014.53 1014.43 1012.80 1011.85 1010.83 1010.91 1008.86 1007.76 1007.46 1006.95 1007.12 1007.06 1006.46 1006.56 1007.33 1008.19 1009.00 1009.46 1009.94 1009.04 1008.98 1009.36 1009.15 1009.47 1009.33 1009.26 1008.83 1008.85 1008.20 1007.82 1008.26 1008.81 1008.51 1008.12 1008.03 1008.04 1008.14 1007.79 1008.19 1008.53
1020.21 1019.47 1018.61 1017.18 1015.01 1015.45 1013.67 1012.11 1011.49 1011.23 1011.18 1008.25 1006.78 1005.60 1005.90 1006.41 1006.46 1005.68 1005.92 1007.09 1008.06 1008.65 1009.32 1009.49 1008.40 1008.57 1008.49 1008.45 1008.26 1008.33 1008.21 1008.62 1008.67 1009.19 1009.51 1009.28 1010.23 1009.36 1008.84 1008.61 1008.63 1008.49 1008.26 1008.08 1008.18
1020.03 1019.37 1018.79 1018.53 1017.65 1016.08 1013.21 1012.24 1011.66 1011.42 1010.68 1006.44 1005.33 1003.98 1004.52 1005.93 1005.55 1005.23 1005.24 1006.42 1007.52 1008.29 1009.13 1008.66 1008.10 1008.01 1007.73 1007.27 1006.98 1007.56 1007.81 1008.69 1009.30 1010.28 1010.71 1010.92 1011.05 1009.90 1009.29 1008.85 1008.30 1007.63 1007.63 1007.39 1007.46
1019.62 1019.11 1018.79 1017.92 1017.74 1014.64 1013.50 1012.71 1012.17 1012.20 1009.25 1005.80 1004.43 1004.63 1005.29 1005.72 1005.50 1005.26 1005.63 1006.30 1006.95 1008.08 1008.60 1008.54 1007.62 1007.68 1006.88 1006.62 1006.56 1007.09 1008.47 1009.77 1010.72 1011.61 1012.53 1011.76 1011.63 1011.12 1009.92 1009.18 1008.81 1008.34 1007.74 1007.85 1008.99
1019.16 1018.39 1018.47 1017.69 1015.51 1013.77 1013.80 1013.45 1013.48 1011.62 1008.08 1005.95 1004.89 1004.75 1005.01 1005.43 1005.78 1005.84 1006.36 1007.04 1007.73 1008.54 1009.01 1008.66 1007.72 1007.06 1006.72 1006.86 1006.84 1007.99 1010.03 1011.70 1012.97 1013.63 1013.63 1012.16 1011.52 1010.80 1009.77 1009.31 1009.15 1009.62 1010.00 1010.62 1010.68
1018.49 1017.42 1016.11 1015.23 1014.20 1014.61 1014.31 1014.35 1013.32 1010.29 1008.40 1006.32 1005.63 1004.89 1005.13 1005.27 1005.71 1005.95 1006.56 1007.28 1007.72 1008.10 1009.19 1009.00 1008.11 1006.83 1006.42 1006.65 1007.19 1008.34 1010.11 1012.00 1013.30 1014.54 1014.09 1012.74 1011.91 1010.97 1010.64 1010.99 1010.51 1010.44 1010.96 1011.56 1012.71
1017.89 1016.54 1015.68 1012.86 1013.49 1014.49 1014.75 1014.61 1012.43 1010.24 1008.29 1007.26 1005.64 1005.17 1005.45 1005.38 1005.47 1005.86 1006.29 1006.83 1007.09 1007.52 1008.53 1008.71 1008.00 1006.74 1006.27 1006.30 1006.87 1008.17 1009.69 1010.76 1012.64 1014.19 1014.76 1013.66 1012.40 1011.47 1011.19 1012.66 1012.11 1011.77 1011.76 1012.83 1013.60
1018.55 1017.26 1014.63 1011.69 1012.70 1013.90 1014.54 1013.67 1011.64 1009.63 1008.50 1007.72 1007.04 1006.05 1006.09 1006.28 1006.14 1006.35 1005.99 1005.81 1006.10 1006.38 1006.81 1007.85 1008.32 1007.02 1006.52 1006.22 1006.47 1007.17 1008.80 1011.19 1013.43 1015.13 1015.69 1014.76 1013.93 1013.97 1013.93 1014.25 1014.15 1014.33 1014.59 1014.22 1014.74
1018.58 1017.04 1011.96 1011.38 1012.07 1013.70 1014.26 1012.99 1010.84 1009.21 1008.64 1007.90 1007.05 1006.62 1006.58 1006.80 1006.90 1006.58 1005.80 1005.65 1005.22 1005.60 1006.36 1007.42 1008.33 1007.56 1007.27 1007.14 1007.28 1008.11 1009.50 1011.64 1013.54 1015.07 1015.93 1015.96 1015.65 1015.22 1015.18 1014.92 1014.99 1014.64 1015.35 1015.83 1016.33
1018.81 1016.73 1011.64 1011.14 1012.64 1013.36 1013.39 1011.94 1010.61 1009.17 1008.42 1008.13 1006.83 1006.46 1006.64 1006.84 1006.96 1006.68 1006.32 1005.70 1005.24 1005.54 1006.96 1007.55 1008.56 1008.98 1008.38 1008.08 1007.80 1009.06 1010.65 1012.17 1014.38 1015.82 1016.31 1016.50 1016.02 1015.13 1014.77 1014.63 1015.02 1015.84 1016.45 1016.92 1017.75
1019.74 1016.77 1011.93 1011.81 1012.72 1013.33 1012.61 1011.51 1010.40 1009.20 1008.20 1007.64 1006.81 1006.49 1006.59 1007.19 1007.36 1006.93 1006.42 1005.61 1005.65 1006.30 1007.03 1007.95 1008.85 1009.48 1009.23 1009.55 1009.32 1010.04 1010.97 1011.89 1013.49 1015.14 1016.10 1016.73 1015.93 1014.81 1014.87 1014.53 1015.08 1015.86 1016.95 1018.90 1019.80
1020.24 1017.83 1014.10 1012.76 1012.81 1012.90 1012.60 1011.43 1010.14 1008.42 1007.63 1007.12 1006.87 1006.65 1007.07 1007.34 1007.52 1007.37 1006.82 1006.10 1006.09 1006.70 1007.13 1007.56 1009.45 1010.07 1010.16 1010.27 1010.27 1011.01 1011.39 1012.00 1012.82 1014.36 1014.89 1015.25 1014.69 1015.06 1015.11 1015.02 1015.52 1015.45 1015.92 1017.01 1019.10
1020.22 1018.19 1015.99 1014.54 1013.78 1013.31 1012.82 1011.48 1010.26 1009.09 1007.55 1006.73 1006.91 1007.07 1007.51 1008.00 1008.07 1007.88 1007.39 1007.08 1007.05 1007.31 1007.91 1008.57 1010.24 1010.13 1010.57 1010.70 1010.64 1011.07 1011.40 1011.74 1012.41 1012.78 1013.84 1013.82 1014.06 1014.06 1014.59 1014.63 1014.84 1015.74 1015.82 1016.66 1017.61
1020.18 1018.72 1017.06 1015.89 1014.47 1013.64 1012.53 1011.30 1010.23 1009.38 1008.55 1007.76 1007.44 1007.25 1007.57 1008.39 1008.66 1008.61 1008.32 1008.45 1008.58 1008.48 1009.04 1009.81 1010.86 1011.25 1011.78 1011.25 1010.98 1010.99 1011.30 1011.32 1011.62 1012.08 1012.72 1013.24 1013.33 1013.02 1013.98 1014.53 1015.02 1015.85 1016.73 1017.86 1018.96
1019.59 1018.71 1018.16 1016.39 1014.96 1013.84 1012.74 1011.85 1010.67 1009.73 1008.61 1008.00 1007.71 1007.90 1008.59 1008.80 1008.59 1008.45 1008.65 1008.80 1009.14 1009.32 1010.17 1010.81 1011.66 1012.49 1012.70 1011.98 1011.49 1011.35 1010.75 1010.63 1011.00 1011.32 1011.94 1012.95 1012.69 1013.42 1014.31 1014.59 1014.73 1015.75 1016.70 1017.56 1018.68
Thickness
5716 5721 5725 5729 5733 5738 5742 5747 5752 5756 5759 5762 5765 5767 5768 5771 5777 5777 5779 5803 5809 5813 5811 5811 5808 5807 5804 5797 5805 5808 5768 5751 5764 5772 5792 5798 5790 5801 5811 5802 5811 5816 5813 5812 5811
5713 5717 5723 5727 5732 5736 5741 5745 5750 5755 5759 5762 5764 5767 5769 5770 5773 5778 5812 5814 5814 5814 5806 5801 5796 5801 5786 5793 5798 5784 5761 5778 5790 5801 5791 5784 5791 5794 5795 5797 5798 5809 5817 5813 5807
5711 5716 5721 5726 5731 5735 5739 5743 5748 5753 5757 5761 5764 5767 5769 5770 5771 5793 5821 5819 5815 5813 5811 5807 5804 5796 5786 5794 5794 5790 5772 5794 5804 5800 5802 5795 5798 5796 5794 5788 5808 5802 5805 5803 5797
5707 5713 5719 5724 5730 5735 5739 5743 5748 5753 5757 5759 5763 5766 5769 5770 5758 5810 5822 5820 5815 5812 5808 5803 5795 5784 5781 5783 5796 5784 5798 5799 5809 5813 5800 5791 5793 5794 5804 5802 5818 5819 5816 5804 5791
5704 5710 5716 5722 5728 5734 5740 5744 5749 5753 5757 5760 5763 5766 5768 5763 5774 5816 5816 5815 5812 5809 5801 5795 5787 5783 5774 5786 5794 5788 5799 5807 5815 5816 5822 5826 5804 5798 5795 5807 5816 5819 5811 5800 5789
5701 5707 5714 5721 5726 5733 5740 5746 5750 5754 5758 5761 5763 5764 5765 5752 5811 5815 5814 5810 5810 5805 5801 5795 5792 5796 5787 5788 5788 5801 5803 5808 5820 5823 5824 5807 5801 5804 5798 5811 5810 5809 5803 5795 5788
5698 5705 5713 5719 5726 5733 5741 5747 5752 5756 5760 5762 5762 5763 5761 5772 5809 5812 5811 5809 5813 5808 5797 5804 5806 5796 5798 5788 5803 5806 5795 5805 5817 5820 5817 5809 5782 5783 5802 5807 5801 5801 5799 5793 5792
5694 5702 5710 5718 5725 5732 5740 5749 5754 5758 5760 5762 5761 5762 5758 5804 5806 5804 5806 5805 5812 5812 5807 5812 5813 5802 5796 5799 5791 5786 5785 5767 5800 5812 5820 5809 5762 5785 5802 5800 5793 5797 5796 5790 5789
5689 5698 5707 5715 5723 5731 5740 5749 5756 5759 5759 5759 5758 5758 5759 5806 5795 5809 5807 5797 5805 5806 5808 5814 5807 5788 5786 5764 5749 5761 5754 5771 5779 5808 5809 5802 5779 5793 5793 5793 5785 5788 5787 5786 5783
5685 5693 5702 5712 5720 5728 5739 5751 5755 5757 5755 5757 5760 5749 5777 5785 5806 5808 5809 5803 5794 5794 5789 5788 5771 5760 5752 5744 5722 5742 5747 5754 5756 5785 5787 5782 5785 5791 5790 5789 5789 5787 5784 5785 5783
5680 5688 5698 5708 5718 5725 5736 5746 5742 5742 5752 5751 5759 5762 5780 5797 5811 5802 5804 5794 5791 5781 5755 5770 5749 5735 5749 5755 5760 5758 5752 5749 5766 5787 5775 5772 5778 5791 5788 5787 5786 5785 5783 5784 5786
5674 5683 5694 5705 5717 5722 5726 5732 5738 5751 5738 5763 5769 5770 5787 5788 5769 5790 5804 5773 5769 5749 5761 5749 5734 5757 5763 5762 5757 5754 5746 5747 5766 5785 5772 5769 5770 5786 5786 5790 5787 5785 5785 5788 5783
5667 5676 5686 5700 5716 5720 5722 5735 5746 5758 5731 5754 5773 5773 5778 5784 5769 5775 5789 5774 5760 5748 5748 5733 5752 5770 5761 5758 5750 5753 5747 5753 5753 5772 5783 5767 5757 5777 5790 5791 5789 5790 5797 5793 5788
5659 5667 5676 5689 5708 5704 5719 5737 5743 5748 5702 5736 5760 5777 5784 5780 5765 5794 5795 5775 5759 5743 5744 5741 5764 5760 5756 5754 5759 5750 5769 5765 5760 5749 5730 5761 5713 5752 5771 5770 5776 5782 5781 5787 5788
5651 5660 5666 5669 5676 5691 5720 5728 5734 5731 5673 5758 5766 5802 5787 5768 5772 5777 5798 5775 5750 5748 5745 5740 5753 5750 5752 5760 5773 5756 5775 5766 5761 5739 5736 5736 5710 5734 5758 5762 5770 5781 5787 5792 5795
5645 5653 5657 5666 5669 5698 5708 5716 5719 5681 5674 5744 5771 5762 5757 5760 5764 5775 5774 5779 5770 5747 5750 5746 5767 5762 5764 5775 5777 5780 5757 5738 5731 5719 5695 5724 5713 5709 5737 5754 5757 5767 5779 5785 5776
5639 5649 5650 5660 5675 5695 5698 5698 5665 5658 5732 5738 5749 5754 5750 5748 5749 5754 5748 5741 5727 5714 5714 5735 5745 5761 5771 5756 5766 5746 5715 5678 5686 5679 5681 5721 5719 5719 5742 5759 5754 5749 5752 5753 5757
5635 5648 5661 5669 5682 5680 5684 5669 5654 5695 5706 5737 5739 5747 5736 5745 5743 5744 5735 5724 5735 5732 5708 5704 5702 5748 5766 5752 5740 5739 5718 5671 5677 5666 5683 5712 5703 5720 5742 5736 5743 5744 5744 5743 5736
5631 5646 5655 5680 5678 5671 5663 5640 5659 5685 5714 5712 5728 5726 5726 5739 5741 5735 5726 5727 5734 5735 5708 5700 5710 5755 5759 5762 5754 5737 5715 5730 5698 5690 5674 5689 5716 5735 5737 5711 5723 5732 5734 5726 5724
5616 5627 5651 5680 5674 5664 5646 5646 5670 5699 5705 5707 5691 5714 5701 5710 5716 5717 5719 5737 5740 5747 5744 5724 5700 5745 5752 5757 5758 5744 5744 5705 5677 5671 5665 5677 5699 5682 5690 5692 5697 5699 5700 5708 5709
5607 5623 5666 5674 5670 5648 5632 5645 5675 5696 5696 5692 5693 5695 5701 5701 5706 5706 5718 5735 5746 5746 5742 5731 5710 5726 5742 5732 5728 5727 5711 5701 5688 5667 5650 5644 5661 5689 5684 5688 5682 5695 5691 5688 5689
5591 5613 5661 5667 5638 5635 5635 5656 5675 5683 5691 5687 5699 5706 5700 5702 5699 5703 5705 5720 5742 5744 5720 5726 5702 5692 5712 5732 5738 5719 5702 5687 5660 5669 5655 5645 5644 5691 5690 5691 5692 5683 5682 5675 5671
5570 5596 5650 5650 5624 5626 5639 5656 5667 5671 5677 5683 5692 5704 5707 5695 5689 5701 5707 5730 5733 5724 5717 5716 5690 5675 5694 5703 5714 5702 5705 5695 5677 5664 5656 5633 5643 5688 5686 5687 5686 5673 5669 5653 5647
5560 5585 5617 5631 5629 5631 5637 5642 5653 5679 5681 5689 5689 5697 5695 5688 5690 5690 5699 5722 5728 5721 5721 5718 5688 5677 5662 5685 5697 5687 5692 5689 5678 5655 5662 5656 5678 5673 5677 5681 5671 5670 5664 5657 5640
5548 5572 5596 5601 5614 5621 5628 5638 5644 5652 5678 5688 5681 5684 5679 5673 5675 5680 5693 5701 5711 5708 5710 5698 5677 5692 5690 5692 5696 5691 5690 5687 5680 5678 5663 5674 5670 5680 5673 5674 5673 5662 5659 5655 5649
5536 5557 5572 5587 5603 5614 5622 5636 5638 5647 5660 5661 5667 5678 5678 5660 5666 5664 5680 5676 5678 5696 5692 5684 5667 5679 5670 5686 5685 5679 5683 5684 5682 5680 5672 5673 5675 5686 5673 5669 5664 5654 5646 5639 5631
5532 5544 5550 5573 5592 5601 5607 5621 5630 5640 5654 5666 5666 5661 5651 5660 5672 5678 5681 5680 5680 5677 5671 5668 5659 5652 5651 5669 5668 5654 5679 5686 5684 5683 5678 5658 5674 5669 5661 5662 5658 5649 5645 5639 5626